Weather observations for the past three days for
Jaffrey Airport-Silver Ranch
Imperial (Metric)
Date Time (edt) Wind (mph) Vis. (mi.) Weather Sky Cond. Temperature (ºF) Relative Humidity Wind Chill (°F) Heat Index (°F) Pressure Precipitation (in)
Air Dwpt 6 hour altimeter (in) sea level (mb) 1 hr 3 hr 6 hr
Max. Min.
22 04:52 Calm 10.00 Partly Cloudy SCT050 57.9 54 87% 30.12 1020.1
22 03:52 Calm 10.00 Fair CLR 57.9 55 90% 30.11 1019.6
22 02:52 Calm 10.00 Fair CLR 60.1 55.9 86% 30.11 1019.6
22 01:52 Calm 10.00 Fair CLR 61 57 75.9 61 87% 30.11 1019.7
22 00:52 Calm 10.00 Fair CLR 62.1 59 90% 30.11 1019.6
21 23:52 Calm 10.00 Fair CLR 63 59 87% 30.11 1019.4
21 22:52 Calm 10.00 Fair CLR 64.9 60.1 84% 30.09 1019.0
21 21:52 Calm 10.00 Mostly Cloudy BKN070 69.1 61 76% 30.09 1018.8
21 20:52 Calm 10.00 Mostly Cloudy BKN080 BKN110 72 62.1 71% 30.07 1018.0
21 19:52 Calm 10.00 Partly Cloudy FEW080 SCT120 75.9 60.1 82.9 75.9 58% 78 30.06 1017.7
21 18:52 Vrbl 3 10.00 Fair CLR 80.1 59 49% 81 30.05 1017.4
21 17:52 Calm 10.00 Mostly Cloudy SCT046 BKN060 82.9 60.1 46% 83 30.04 1017.1
21 16:52 Vrbl 5 10.00 A Few Clouds FEW045 FEW049 82 61 49% 83 30.03 1016.9
21 15:52 NW 7 10.00 Partly Cloudy FEW045 FEW055 SCT100 82.9 57.9 43% 83 30.04 1017.0
21 14:52 NW 8 10.00 A Few Clouds FEW049 82 57.9 44% 82 30.04 1016.9
21 13:52 Calm 10.00 Mostly Cloudy SCT042 BKN049 BKN110 80.1 59 81 69.1 49% 81 30.04 1017.1
21 12:52 NW 7 10.00 Partly Cloudy FEW043 SCT050 79 57.9 49% 80 30.05 1017.4
21 11:52 Vrbl 6 10.00 Mostly Cloudy BKN041 79 60.1 52% 80 30.04 1017.2
21 10:52 Vrbl 5 10.00 Fair CLR 79 57.9 49% 80 30.05 1017.2
21 09:52 Vrbl 5 10.00 Fair CLR 77 57.9 52% 79 30.05 1017.4
21 08:52 Vrbl 5 10.00 Fair CLR 75 59 58% 77 30.05 1017.4
21 07:52 Calm 10.00 Fair CLR 69.1 63 69.1 62.1 81% 30.05 1017.7
21 06:52 Calm 10.00 Fair CLR 64.9 62.1 90% 30.04 1017.2
21 05:52 S 3 7.00 Fair CLR 64 61 90% 30.04 1017.1
21 04:52 Calm 7.00 Fair CLR 63 61 93% 30.02 1016.6
21 03:52 Calm 7.00 Fair CLR 64 61 90% 30.02 1016.3
21 02:52 Calm 9.00 Fair CLR 66 64 93% 30.02 1016.4
21 01:52 Calm 10.00 Fair CLR 68 64.9 77 68 90% 30.03 1016.7
21 00:52 Calm 10.00 Fair CLR 69.1 64.9 87% 30.04 1017.0
20 23:52 S 3 10.00 Fair CLR 69.1 64.9 87% 30.03 1016.9
20 22:52 S 5 10.00 Fair CLR 72 64.9 79% 30.04 1017.2
20 21:52 SW 3 10.00 Fair CLR 73 64.9 76% 30.05 1017.4
20 20:52 Vrbl 6 10.00 Fair CLR 75 64.9 71% 77 30.04 1017.0
20 19:52 SW 6 10.00 Fair CLR 77 63 84 77 62% 79 30.03 1017.0
20 18:52 S 6 10.00 Fair CLR 79 61 54% 80 30.03 1016.8
20 17:52 S 8 G 20 10.00 Fair CLR 81 60.1 49% 82 30.03 1016.9
20 16:52 Vrbl 7 G 17 10.00 A Few Clouds FEW050 82.9 57.9 43% 83 30.04 1017.1
20 15:52 W 9 10.00 A Few Clouds FEW055 84 55.9 38% 83 30.05 1017.5
20 14:52 Vrbl 7 10.00 A Few Clouds FEW055 82.9 57 41% 82 30.06 1017.9
20 13:52 SW 8 10.00 A Few Clouds FEW055 81 57 82 66 44% 81 30.09 1018.9
20 12:52 SW 10 10.00 A Few Clouds FEW050 81 55 41% 81 30.1 1019.3
20 11:52 W 9 G 17 10.00 A Few Clouds FEW050 80.1 54 41% 80 30.11 1019.6
20 10:52 SW 7 10.00 Fair CLR 78.1 55.9 47% 79 30.12 1019.9
20 09:52 Vrbl 3 10.00 Fair CLR 73.9 59 60% 30.13 1020.3
20 08:52 S 3 10.00 Fair CLR 72 59 64% 30.13 1020.5
20 07:52 S 6 10.00 Fair CLR 66 59 66 57 78% 30.15 1020.9
20 06:52 Calm 10.00 Fair CLR 62.1 57.9 86% 30.14 1020.7
20 05:52 Calm 10.00 Fair CLR 57 54 90% 30.14 1020.6
20 04:52 Calm 10.00 Fair CLR 60.1 57 90% 30.13 1020.3
20 03:52 Calm 10.00 Fair CLR 57.9 55 90% 30.13 1020.5
20 02:52 SE 3 10.00 Fair CLR 59 55.9 90% 30.14 1020.7
20 01:52 Calm 10.00 Fair CLR 59 55.9 73.9 59 90% 30.13 1020.5
20 00:52 S 3 10.00 Fair CLR 60.1 57 90% 30.14 1020.7
19 23:52 Calm 10.00 Fair CLR 61 57.9 90% 30.14 1020.6
19 22:52 Calm 10.00 Fair CLR 62.1 57.9 86% 30.14 1020.6
19 21:52 Calm 10.00 A Few Clouds FEW060 64 60.1 87% 30.14 1020.6
19 20:52 S 3 10.00 Fair CLR 66.9 60.1 79% 30.13 1020.2
19 19:52 Calm 10.00 Fair CLR 73.9 60.1 82 73.9 62% 30.11 1019.7
19 18:52 W 5 10.00 Fair CLR 79 54 42% 79 30.1 1019.4
19 17:52 W 6 10.00 Fair CLR 81 53.1 38% 80 30.1 1019.2
19 16:52 Calm 10.00 Partly Cloudy SCT060 80.1 55.9 44% 80 30.1 1019.2
19 15:52 Vrbl 3 10.00 Mostly Cloudy BKN060 80.1 54 41% 80 30.1 1019.2
19 14:52 N 6 10.00 Mostly Cloudy BKN055 81 55 41% 81 30.1 1019.5
19 13:52 W 3 10.00 Mostly Cloudy BKN050 79 53.1 80.1 66 41% 79 30.11 1019.6
19 12:52 NW 3 10.00 Mostly Cloudy BKN047 77 54 45% 78 30.11 1019.8
19 11:52 Calm 10.00 Partly Cloudy SCT044 77 54 45% 78 30.12 1019.8
19 10:52 Calm 10.00 Partly Cloudy SCT037 73.9 55 52% 30.12 1020.1
19 09:52 Vrbl 3 10.00 A Few Clouds FEW031 71.1 55 57% 30.12 1019.9
19 08:52 Vrbl 3 10.00 Fair CLR 68 54 61% 30.12 1019.9
19 07:52 Calm 10.00 Fair CLR 64.9 53.1 64.9 55.9 66% 30.1 1019.5
19 06:52 Calm 10.00 Fair CLR 60.1 54 80% 30.09 1019.1
19 05:52 Calm 10.00 Fair CLR 57 53.1 87% 30.08 1018.5
Date Time (edt) Wind (mph) Vis. (mi.) Weather Sky Cond. Air Dwpt Max. Min. Relative Humidity Wind Chill (°F) Heat Index (°F) altimeter (in) sea level (mb) 1 hr 3 hr 6 hr
6 hour
Temperature (ºF) Pressure Precipitation (in)